[[{"header":{"parameterUnit":"m.s-1","parameterCategory":1,"la1":30.2991,"la2":30.254,"lo1":-89.0895,"lo2":-89.0444,"dy":0.0017,"dx":0.0017,"nx":28,"ny":28,"refTime":"2023-10-31T09:00:00:Z","depth":0,"parameterNumber":2,"parameterNumberName":"U-component_of_WINDS"},"data":[0,0,0,0,0,0,0,0,0,0,0,0,0,0,0,0,0,0,0,0,0,0,0,0,0,0,0,0,0,0,0,0,0,0,0,0,0,0,0,0,0,0,0,0,0,0,0,0,0,0,0,0,0,0,0,0,0,0,-5.2437,-5.2438,0,-5.2506,-5.2507,-5.2508,-5.2307,-5.2301,-5.2295,-5.2289,-5.2362,-5.2369,-5.2377,0,0,0,0,0,0,0,0,0,0,0,0,0,-5.2132,-5.2138,-5.2437,-5.2438,-5.2439,-5.2506,-5.2507,-5.2508,-5.2308,-5.2301,-5.2293,-5.2286,-5.2359,-5.2368,-5.2378,0,0,0,0,0,0,0,0,0,0,0,0,0,-5.2239,-5.2141,-5.2437,-5.2347,-5.234,-5.2506,-5.2507,-5.2508,-5.231,-5.2301,-5.2291,-5.2283,-5.2356,-5.2367,-5.2379,-5.2635,0,0,-5.2414,-5.2419,0,0,0,0,0,0,0,0,-5.2233,-5.2251,-5.236,-5.2354,-5.2346,-5.2389,-5.2426,-5.2551,-5.2312,-5.2322,-5.2289,-5.2278,-5.2378,-5.2387,-5.2421,-5.2639,-5.2642,-5.2415,-5.2422,-5.2427,-5.243,0,0,0,0,0,0,0,-5.2226,-5.2247,-5.2465,-5.2362,-5.2353,-5.2303,-5.2308,-5.2449,-5.2401,-5.232,-5.2306,-5.2316,-5.2373,-5.241,-5.2421,-5.2643,-5.2415,-5.2425,-5.2432,-5.2437,-5.3072,-5.3081,0,0,0,0,0,0,-5.223,-5.2242,-5.2462,-5.2467,-5.2266,-5.2317,-5.2322,-5.2384,-5.2399,-5.2392,-5.2324,-5.2307,-5.2395,-5.2408,-5.2423,-5.2722,-5.2427,-5.2438,-5.2444,-5.3062,-5.3074,-5.3085,0,0,0,0,0,0,-5.2225,-5.2252,-5.246,-5.235,-5.2373,-5.2332,-5.2403,-5.2391,-5.2428,-5.2402,-5.2393,-5.2371,-5.2388,-5.2407,-5.2583,-5.2722,-5.2443,-5.2453,-5.305,-5.3066,-5.3079,-5.3324,0,0,0,0,0,0,-5.2217,-5.2251,-5.2349,-5.2354,-5.238,-5.262,-5.2412,-5.2399,-5.2448,-5.2426,-5.2444,-5.2438,-5.2382,-5.2567,-5.2595,-5.2733,-5.2462,-5.3037,-5.3057,-5.3075,-5.3304,-5.3346,-5.3382,0,0,0,0,0,-5.2206,-5.2416,-5.2355,-5.2382,-5.25,-5.2628,-5.2643,-5.2574,-5.246,-5.2557,-5.254,-5.2437,-5.2702,-5.2587,-5.2616,-5.276,-5.3028,-5.3051,-5.3073,-5.3286,-5.3338,-5.3381,0,0,0,0,0,0,-5.2429,-5.2415,-5.2347,-5.2564,-5.2599,-5.2594,-5.2715,-5.2631,-5.2699,-5.2676,-5.2588,-5.2594,-5.2786,-5.279,-5.2662,-5.3007,-5.2846,-5.2875,-5.2998,-5.3046,-5.3085,-5.3079,-5.2472,0,0,0,0,0,-5.2503,-5.2608,-5.259,-5.2784,-5.2804,-5.2757,-5.281,-5.2754,-5.2787,-5.28,-5.2796,-5.2832,-5.2923,-5.2985,-5.3067,-5.3303,-5.3303,-5.3416,-5.3455,-5.3488,-5.3514,-5.3637,-5.3686,-5.3158,-5.3158,-5.3158,0,0,-5.2658,-5.2663,-5.2735,-5.2828,-5.2848,-5.2958,-5.2771,-5.2896,-5.2976,-5.2819,-5.2985,-5.2984,-5.3018,-5.3225,-5.3316,-5.3234,-5.3659,-5.3516,-5.3542,-5.3551,-5.3665,-5.3715,-5.3759,-5.3173,-5.3171,-5.3168,0,0,-5.2995,-5.3011,-5.3172,-5.3196,-5.3228,-5.3195,-5.3234,-5.3242,-5.3234,-5.3399,-5.3283,-5.3378,-5.3537,-5.3565,-5.36,-5.3946,-5.3853,-5.3976,-5.418,-5.43,-5.4342,-5.4378,-5.45,-5.4545,-5.4002,-5.4003,-5.4003,0,-5.3184,-5.3345,-5.3266,-5.3398,-5.3442,-5.3304,-5.3466,-5.3493,-5.3552,-5.3585,-5.3492,-5.3687,-5.3701,-5.3911,-5.3995,-5.4029,-5.407,-5.3973,-5.4342,-5.4378,-5.4411,-5.4526,-5.4572,-5.4017,-5.4015,-5.4014,-5.4013,0,-5.3573,-5.3687,-5.3813,-5.3871,-5.3929,-5.4077,-5.402,-5.4088,-5.4027,-5.4003,-5.4172,-5.4183,-5.4263,-5.4309,-5.4252,-5.4512,-5.446,-5.4357,-5.4192,-5.4477,-5.4583,-5.4627,-5.4038,-5.4033,-5.4028,-5.4025,0,0,-5.4054,-5.4065,-5.4113,-5.4136,-5.4161,-5.4247,-5.4387,-5.4465,-5.4524,-5.4569,-5.4683,-5.482,-5.4724,-5.4764,-5.4708,-5.4814,-5.5085,-5.4697,-5.4696,-5.4768,-5.537,-5.5447,-5.5499,-5.5024,-5.5032,-5.5039,-5.5367,0,-5.4385,-5.4624,-5.4556,-5.4796,-5.4898,-5.4768,-5.4889,-5.4917,-5.4899,-5.4983,-5.4962,-5.506,-5.4927,-5.4949,-5.5049,-5.5032,-5.5205,-5.5007,-5.5129,-5.5134,-5.5123,-5.5555,-5.5637,-5.5946,-5.5408,-5.5415,-5.542,0,-5.4803,-5.4862,-5.5112,-5.5117,-5.5157,-5.5268,-5.5332,-5.5415,-5.5444,-5.5422,-5.5467,-5.5388,-5.5525,-5.5361,-5.5547,-5.5414,-5.546,-5.5459,-5.5469,-5.5477,-5.5294,-5.5573,-5.6043,-5.6089,-5.5485,-5.548,-5.5475,0,-5.5126,-5.5268,-5.5435,-5.5459,-5.547,-5.5551,-5.5559,-5.5578,-5.5629,-5.5686,-5.5717,-5.5791,-5.5831,-5.5889,-5.5831,-5.5717,-5.6026,-5.5858,-5.6012,-5.6014,-5.6082,-5.6078,-5.6565,-5.6115,-5.6114,-5.6113,-5.6112,0,-5.5502,-5.5659,-5.558,-5.5682,-5.5854,-5.5775,-5.5947,-5.594,-5.5958,-5.6057,-5.5949,-5.6044,-5.5963,-5.6051,-5.6007,-5.6167,-5.6187,-5.6173,-5.6159,-5.6182,-5.6183,-5.621,-5.6186,-5.6126,-5.6123,-5.612,-5.6118,0,-5.5891,-5.5845,-5.6017,-5.6013,-5.6015,-5.6142,-5.6138,-5.6232,-5.6205,-5.6331,-5.6356,-5.6314,-5.6411,-5.636,-5.6462,-5.6432,-5.6638,-5.6597,-5.6629,-5.6617,-5.6773,-5.6759,-5.7292,-5.7357,-5.6868,-5.6873,-5.6877,0,-5.6134,-5.6251,-5.6259,-5.6316,-5.6332,-5.6427,-5.6477,-5.6403,-5.646,-5.65,-5.659,-5.6677,-5.6743,-5.6905,-5.6883,-5.6959,-5.6917,-5.7099,-5.6928,-5.6947,-5.6918,-5.6911,-5.6921,-5.7133,-5.7139,-5.7144,-5.7148,0,-5.6568,-5.6538,-5.6615,-5.6684,-5.6746,-5.6797,-5.6839,-5.6892,-5.6819,-5.6889,-5.6986,-5.7037,-5.7139,-5.7227,-5.7292,-5.73,-5.7213,-5.7202,-5.7241,-5.7265,-5.7277,-5.727,-5.6721,-5.7189,-5.7185,-5.7182,-5.718,-5.7178,-5.6889,-5.6987,-5.7007,-5.7095,-5.7118,-5.7159,-5.7247,-5.723,-5.731,-5.7386,-5.7338,-5.7452,-5.7476,-5.7554,-5.7573,-5.7661,-5.7588,-5.7646,-5.766,-5.7676,-5.7696,-5.7265,-5.7673,-5.7672,-5.7671,-5.767,-5.7669,0,-5.7316,-5.7322,-5.7404,-5.7464,-5.7534,-5.7444,-5.7485,-5.7549,-5.765,-5.768,-5.7746,-5.7857,-5.7942,-5.7927,-5.8003,-5.8076,-5.8037,-5.8098,-5.8091,-5.8094,-5.7757,-5.7715,-5.8128,-5.8128,-5.8128,-5.8128,-5.8128,-5.8128,-5.7546,-5.7705,-5.7678,-5.7847,-5.7851,-5.7962,-5.7992,-5.8029,-5.8052,-5.818,-5.8249,-5.8238,-5.8249,-5.8325,-5.8398,-5.8391,-5.8424,-5.85,-5.8478,-5.8164,-5.8118,-5.8075,-5.8034,-5.8508,-5.8508,-5.8807,-5.881,-5.8812]},{"header":{"parameterUnit":"m.s-1","parameterCategory":1,"la1":30.2991,"la2":30.254,"lo1":-89.0895,"lo2":-89.0444,"dy":0.0017,"dx":0.0017,"nx":28,"ny":28,"refTime":"2023-10-31T09:00:00:Z","depth":0,"parameterNumber":3,"parameterNumberName":"V-component_of_WINDS"},"data":[0,0,0,0,0,0,0,0,0,0,0,0,0,0,0,0,0,0,0,0,0,0,0,0,0,0,0,0,0,0,0,0,0,0,0,0,0,0,0,0,0,0,0,0,0,0,0,0,0,0,0,0,0,0,0,0,0,0,-3.6243,-3.6244,0,-3.6281,-3.6282,-3.6282,-3.6272,-3.6271,-3.6271,-3.627,-3.6306,-3.6308,-3.6309,0,0,0,0,0,0,0,0,0,0,0,0,0,-3.6157,-3.6159,-3.6243,-3.6244,-3.6244,-3.6281,-3.6282,-3.6282,-3.6272,-3.6271,-3.627,-3.627,-3.6306,-3.6308,-3.631,0,0,0,0,0,0,0,0,0,0,0,0,0,-3.6195,-3.6159,-3.6243,-3.6244,-3.6244,-3.6281,-3.6282,-3.6283,-3.6273,-3.6271,-3.627,-3.6269,-3.6305,-3.6307,-3.631,-3.6348,0,0,-3.6317,-3.6319,0,0,0,0,0,0,0,0,-3.6193,-3.6198,-3.6243,-3.6244,-3.6244,-3.6271,-3.6265,-3.6304,-3.6273,-3.6262,-3.627,-3.6269,-3.6295,-3.6298,-3.6308,-3.6349,-3.6351,-3.6318,-3.6319,-3.632,-3.6321,0,0,0,0,0,0,0,-3.619,-3.6196,-3.6258,-3.6244,-3.6245,-3.624,-3.6245,-3.6272,-3.6284,-3.6263,-3.6262,-3.6267,-3.6295,-3.6306,-3.6309,-3.6352,-3.6318,-3.632,-3.6321,-3.6322,-3.6422,-3.6423,0,0,0,0,0,0,-3.6188,-3.6194,-3.6257,-3.626,-3.6215,-3.6243,-3.6248,-3.6264,-3.6284,-3.6286,-3.6268,-3.6266,-3.6302,-3.6306,-3.631,-3.6353,-3.632,-3.6323,-3.6324,-3.6421,-3.6422,-3.6423,0,0,0,0,0,0,-3.6186,-3.6193,-3.6256,-3.6227,-3.6234,-3.6246,-3.6264,-3.6265,-3.6275,-3.6288,-3.6289,-3.6276,-3.6301,-3.6306,-3.6338,-3.6354,-3.6324,-3.6326,-3.6419,-3.6421,-3.6423,-3.6441,0,0,0,0,0,0,-3.6183,-3.6193,-3.6209,-3.6227,-3.6236,-3.6284,-3.6265,-3.6266,-3.628,-3.6278,-3.6296,-3.6298,-3.6301,-3.6334,-3.634,-3.6357,-3.6328,-3.6418,-3.642,-3.6422,-3.6439,-3.6443,-3.6447,0,0,0,0,0,-3.618,-3.6213,-3.621,-3.6217,-3.6256,-3.6285,-3.629,-3.6293,-3.6281,-3.6296,-3.6304,-3.6298,-3.6352,-3.6337,-3.6344,-3.6362,-3.6417,-3.642,-3.6422,-3.6437,-3.6442,-3.6447,0,0,0,0,0,0,-3.6196,-3.6215,-3.6212,-3.6252,-3.6267,-3.6284,-3.6303,-3.6299,-3.6318,-3.6315,-3.6317,-3.6321,-3.6353,-3.6361,-3.6344,-3.6398,-3.6382,-3.6386,-3.6391,-3.6396,-3.64,-3.6397,-3.633,0,0,0,0,0,-3.6204,-3.6227,-3.6242,-3.6276,-3.6283,-3.6292,-3.6305,-3.6305,-3.6321,-3.6327,-3.6337,-3.6352,-3.6371,-3.6385,-3.6404,-3.644,-3.6442,-3.6456,-3.6459,-3.6463,-3.6466,-3.6482,-3.6487,-3.6432,-3.6432,-3.6432,0,0,-3.6221,-3.6234,-3.6249,-3.6279,-3.6291,-3.6313,-3.6297,-3.6322,-3.6338,-3.6331,-3.636,-3.6368,-3.6384,-3.6417,-3.6432,-3.6425,-3.6481,-3.6466,-3.6468,-3.647,-3.6485,-3.649,-3.6495,-3.6434,-3.6433,-3.6433,0,0,-3.6262,-3.6276,-3.6303,-3.6315,-3.6333,-3.6338,-3.6344,-3.6361,-3.6366,-3.6396,-3.639,-3.6408,-3.6443,-3.6454,-3.6464,-3.6506,-3.65,-3.6512,-3.6532,-3.6548,-3.6552,-3.6556,-3.6568,-3.6573,-3.6515,-3.6515,-3.6515,0,-3.628,-3.6314,-3.6318,-3.6342,-3.6354,-3.6349,-3.6375,-3.6386,-3.6409,-3.6417,-3.6408,-3.645,-3.6461,-3.6495,-3.6505,-3.6514,-3.6519,-3.651,-3.6551,-3.6555,-3.6559,-3.657,-3.6575,-3.6517,-3.6516,-3.6516,-3.6516,0,-3.6334,-3.6358,-3.6377,-3.6399,-3.6414,-3.6439,-3.6444,-3.6458,-3.6457,-3.6462,-3.6491,-3.6503,-3.6523,-3.6531,-3.6531,-3.6564,-3.6559,-3.6551,-3.6535,-3.6565,-3.6576,-3.6581,-3.6518,-3.6518,-3.6517,-3.6517,0,0,-3.6387,-3.6409,-3.6416,-3.6424,-3.6442,-3.646,-3.6484,-3.6503,-3.6514,-3.653,-3.6548,-3.6576,-3.6568,-3.6579,-3.658,-3.6594,-3.6623,-3.6584,-3.6584,-3.6589,-3.6657,-3.6661,-3.6667,-3.6619,-3.662,-3.6621,-3.6655,0,-3.6428,-3.647,-3.6472,-3.651,-3.653,-3.6524,-3.6544,-3.6556,-3.6561,-3.6577,-3.6582,-3.6601,-3.6591,-3.6597,-3.6611,-3.6617,-3.6636,-3.6614,-3.6634,-3.6635,-3.6629,-3.6673,-3.6678,-3.6709,-3.6659,-3.666,-3.6661,0,-3.6481,-3.6498,-3.6537,-3.655,-3.6558,-3.6576,-3.6593,-3.6609,-3.6622,-3.6624,-3.6636,-3.6633,-3.6655,-3.6639,-3.6668,-3.6653,-3.6661,-3.6665,-3.6666,-3.6666,-3.6648,-3.6672,-3.672,-3.6724,-3.6668,-3.6667,-3.6667,0,-3.6512,-3.6544,-3.6571,-3.6579,-3.6595,-3.6607,-3.6614,-3.6626,-3.6637,-3.6651,-3.6657,-3.6674,-3.6683,-3.6695,-3.6696,-3.6685,-3.6724,-3.6709,-3.6724,-3.6724,-3.6732,-3.6731,-3.6779,-3.674,-3.674,-3.674,-3.674,0,-3.6556,-3.658,-3.6585,-3.6601,-3.6627,-3.6628,-3.6653,-3.6659,-3.6668,-3.6684,-3.668,-3.6695,-3.6697,-3.6711,-3.6713,-3.6734,-3.6739,-3.674,-3.6739,-3.6739,-3.6739,-3.6743,-3.674,-3.6741,-3.6741,-3.6741,-3.6741,0,-3.6595,-3.6599,-3.6628,-3.664,-3.6643,-3.6661,-3.6671,-3.6685,-3.6689,-3.6709,-3.6714,-3.6719,-3.6736,-3.6739,-3.6759,-3.6759,-3.6785,-3.6783,-3.678,-3.6779,-3.6794,-3.6791,-3.6845,-3.6851,-3.681,-3.6811,-3.6811,0,-3.6622,-3.664,-3.6653,-3.6663,-3.6671,-3.6688,-3.6698,-3.67,-3.671,-3.6725,-3.6737,-3.6753,-3.6766,-3.6793,-3.6798,-3.6812,-3.681,-3.6827,-3.6812,-3.681,-3.6807,-3.6805,-3.6806,-3.683,-3.683,-3.6831,-3.6831,0,-3.6668,-3.6669,-3.6684,-3.67,-3.6712,-3.6724,-3.6736,-3.6745,-3.6747,-3.6759,-3.6776,-3.6786,-3.6805,-3.6821,-3.6835,-3.684,-3.6835,-3.6836,-3.684,-3.6839,-3.6835,-3.6835,-3.6786,-3.6834,-3.6834,-3.6834,-3.6834,-3.6834,-3.67,-3.6714,-3.6725,-3.6741,-3.675,-3.676,-3.6774,-3.6778,-3.6793,-3.6809,-3.6808,-3.6826,-3.6836,-3.6854,-3.686,-3.6873,-3.6867,-3.6874,-3.6875,-3.6876,-3.6876,-3.6835,-3.6876,-3.6876,-3.6876,-3.6876,-3.6876,0,-3.6743,-3.675,-3.6765,-3.678,-3.6793,-3.6787,-3.6799,-3.6809,-3.6825,-3.6835,-3.6847,-3.6865,-3.688,-3.6885,-3.6899,-3.6908,-3.6906,-3.6911,-3.6909,-3.691,-3.6882,-3.6876,-3.6912,-3.6912,-3.6912,-3.6912,-3.6912,-3.6912,-3.6768,-3.679,-3.6792,-3.6818,-3.6824,-3.6841,-3.6848,-3.6856,-3.6864,-3.6884,-3.6896,-3.6899,-3.6906,-3.692,-3.6932,-3.6933,-3.6938,-3.6944,-3.6943,-3.6916,-3.6913,-3.6909,-3.6903,-3.6945,-3.6945,-3.6971,-3.6971,-3.6971]}]]